This demonstration page uses our WeatherBlox Daily Observations layout. Learn more.

41.55636, -103.73856

Hourly Observations for July 3, 2016

Temp ( °F °C ) Dew Point ( °F °C ) Humidity (%) Winds ( mph kmh ) Pressure ( in mb ) Visibility ( mi km ) Precip ( " mm )
12:53 am 00:53 Clear 60 15.6 57 13.9 90 90 ESE 9 15 29.91 1013 8 12.87472 0 0
1:22 am 01:22 Partly Cloudy with Mist and Fog 59 15 57 14 94 94 ESE 13 20 29.91 1013 6 9.65604 0 0
1:30 am 01:30 Mostly Cloudy with Mist and Fog 61 16 57 14 88 88 ESE 12 19 29.91 1013 4 6.43736 0 0
1:36 am 01:36 Mostly Cloudy with Mist and Fog 61 16 57 14 88 88 ESE 14 22 29.91 1013 1.75 2.816345 0 0
1:48 am 01:48 Mostly Cloudy with Mist and Fog 61 16 57 14 88 88 ESE 13 20 29.85 1011 0.75 1.207005 0 0
1:53 am 01:53 Mostly Cloudy with Mist and Fog 60 15.6 58 14.4 93 93 ESE 12 19 29.89 1012 0.75 1.207005 0 0
2:06 am 02:06 Cloudy with Mist and Fog 61 16 59 15 94 94 ESE 10 17 29.85 1011 1.5 2.41401 0 0
2:11 am 02:11 Cloudy with Mist and Fog 60 15.6 59 15 96 96 ESE 10 17 29.88 1012 3 4.82802 0 0
2:53 am 02:53 Cloudy with Mist and Fog 61 16.1 59 15 93 93 ESE 8 13 29.88 1012 3 4.82802 0 0
3:17 am 03:17 Cloudy with Mist and Fog 61 16.1 59 15 93 93 ESE 9 15 29.85 1011 2.5 4.02335 0 0
3:24 am 03:24 Cloudy with Mist and Fog 61 16 59 15 94 94 ESE 9 15 29.85 1011 3 4.82802 0 0
3:53 am 03:53 Cloudy with Mist and Fog 62 16.7 59 15 90 90 ESE 9 15 29.88 1012 5 8.0467 0 0
4:40 am 04:40 Cloudy 63 17 59 15 88 88 SE 7 11 29.85 1011 7 11.26538 0 0
4:53 am 04:53 Cloudy 62 16.7 59 15 90 90 ESE 9 15 29.87 1012 8 12.87472 0 0
5:53 am 05:53 Cloudy 62 16.7 59 15 90 90 ESE 7 11 29.88 1012 7 11.26538 0 0
6:53 am 06:53 Cloudy 63 17.2 59 15 87 87 ESE 6 9 29.88 1012 8 12.87472 0 0
7:53 am 07:53 Cloudy 65 18.3 59 15 81 81 SE 7 11 29.9 1012 10 16.0934 0 0
8:35 am 08:35 Partly Cloudy 67 19.4 59 15 76 76 SE 3 6 29.85 1011 10 16.0934 0 0
8:53 am 08:53 Sunny 68 20 60 15.6 76 76 ESE 5 7 29.9 1012 10 16.0934 0 0
9:53 am 09:53 Sunny 73 22.8 61 16.1 66 66 E 7 11 29.88 1012 10 16.0934 0 0
10:53 am 10:53 Sunny 78 25.6 58 14.4 50 50 VRB 5 7 29.86 1011 10 16.0934 0 0
11:53 am 11:53 Sunny 81 27.2 57 13.9 44 44 VRB 5 7 29.85 1011 10 16.0934 0 0
12:53 pm 12:53 Sunny 82 27.8 58 14.4 44 44 Calm 29.84 1010 10 16.0934 0 0
1:53 pm 13:53 Sunny 85 29.4 60 15.6 43 43 E 5 7 29.81 1010 10 16.0934 0 0
2:53 pm 14:53 Sunny 87 30.6 57 13.9 36 36 S 6 9 29.79 1009 10 16.0934 0 0
3:53 pm 15:53 Sunny 90 32.2 50 10 25 25 SW 3 6 29.75 1008 10 16.0934 0 0
4:53 pm 16:53 Sunny 92 33.3 46 7.8 21 21 SSE 8 13 29.73 1007 10 16.0934 0 0
5:53 pm 17:53 Sunny 90 32.2 52 11.1 27 27 SE 12 19 29.71 1006 10 16.0934 0 0
6:53 pm 18:53 Sunny 88 31.1 56 13.3 34 34 SE 10 17 29.71 1006 10 16.0934 0 0
7:53 pm 19:53 Sunny 81 27.2 63 17.2 54 54 ESE 9 15 29.73 1007 10 16.0934 0 0
8:53 pm 20:53 Clear 81 27.2 58 14.4 45 45 SSE 8 13 29.74 1007 10 16.0934 0 0
9:17 pm 21:17 Mostly Cloudy with Light Thunderstorms 81 27.2 52 11.1 37 37 W 10 17 29.65 1004 10 16.0934 0 0.0254
9:46 pm 21:46 Mostly Clear with Nearby Thunderstorms 79 26 46 8 32 32 W 13 20 29.65 1004 10 16.0934 0 0
9:53 pm 21:53 Clear 78 25.6 47 8.3 33 33 W 9 15 29.77 1008 10 16.0934 0 0.0254
10:53 pm 22:53 Clear 71 21.7 51 10.6 49 49 SSW 7 11 29.78 1009 10 16.0934 0 0
11:53 pm 23:53 Clear 65 18.3 53 11.7 66 66 NE 3 6 29.79 1009 10 16.0934 0 0

Powered by AerisWeather